Regional Weather Roundup
Issued by NWS New Orleans/Baton Rouge, LA

Home | Current Version | Previous Version | Text Only | Print | Product List | Glossary On
Versions: 1 2 3 4 5 6 7 8 9 10 11 12 13 14 15 16 17 18 19 20 21 22 23 24 25 26 27 28 29 30 31 32 33 34 35 36 37 38 39 40 41 42 43 44 45 46 47 48 49 50
376
ASUS44 KLIX 190707
RWRLIX
NEW ORLEANS REGIONAL WEATHER ROUNDUP
NATIONAL WEATHER SERVICE NEW ORLEANS LA
200 AM CDT SUN APR 19 2015

NOTE: "FAIR" INDICATES FEW OR NO CLOUDS BELOW 12,000 FEET WITH NO
      SIGNIFICANT WEATHER AND/OR OBSTRUCTIONS TO VISIBILITY.
      SKY/WX - SKY CONDITION AND SIGNIFICANT WEATHER.
      TMP - AIR TEMPERATURE.     DP    - DEWPOINT TEMPERATURE.
      RH  - RELATIVE HUMIDITY.   PRES  - PRESSURE.
      HI  - HEAT INDEX.          WCI   - WIND CHILL INDEX.

*  THESE STATIONS ARE NOT NWS OR FAA STATIONS AND ARE NOT UNDER
   NWS QUALITY CONTROL.

LAZ038-040-048-061>063-065>067-069-190800-
SOUTHEAST LOUISIANA

CITY           SKY/WX    TMP DP  RH WIND       PRES   REMARKS
N.O. AUDUBON     N/A     73  70  91 MISG        N/A
N.O. INTL ARPT MOCLDY    72  68  87 S13       29.79S
N.O. LAKEFRONT MOCLDY    73  67  81 S13       29.79F
SLIDELL        CLOUDY    72  69  90 S8        29.79S
BATON ROUGE    MOCLDY    71  69  93 S9        29.80S
BOOTHVILLE     PTCLDY    73  71  93 S12       29.79F
BELLE CHASSE   MOCLDY    71  68  90 S7        29.79F
BOGALUSA*        N/A     72  67  87 SW5       29.81S
GALLIANO*      PTSUNNY   69  68  96 CALM      29.80F
NEW ROADS*     PTSUNNY   70  69  96 S6        29.80S
GONZALES*      CLOUDY    72  72 100 SW5       29.80F
HAMMOND*       CLOUDY    72  68  88 SW5       29.83R
HOUMA*         CLOUDY    72  71  95 S7        29.79F
PORT FOURCHON* NOT AVBL

$$

MSZ070-080>082-190800-
SOUTHERN MISSISSIPPI

CITY           SKY/WX    TMP DP  RH WIND       PRES   REMARKS
MCCOMB         CLOUDY    70  69  97 S9        29.79S
GULFPORT       CLOUDY    73  68  84 S13       29.79S
BILOXI         CLOUDY    73  71  92 S10       29.79S
PASCAGOULA     MOCLDY    70  68  93 SW3       29.81R

$$

COASTAL OBSERVATIONS
LAKE AND NEARSHORE STATIONS

STATION/POSITION TIME  TEMP    WIND        PRES    WAVE
                       AIR SEA DIR/SP/G            HT/PER
                 (UTC) (F)     (DEG/KT/KT) (MB)    (FT/S)
PASCAGOULA       0600   74     150/ 11/ 15 1008.1
WAVELAND YACHT   0600   74 73  210/  7/ 13 1008.9
GRAND ISLE       0612   74                   N/A
SOUTHWEST PASS   0612   72                   N/A
NEW CANAL        0612   72                   N/A
SHELL BEACH      0600   71 75  190/  8/ 13 1008.6

OFFSHORE STATIONS

STATION/POSITION TIME  TEMP    WIND        PRES    WAVE
                       AIR SEA DIR/SP/G            HT/PER
                 (UTC) (F)     (DEG/KT/KT) (MB)    (FT/S)
64 S DAUPHIN ISL 0650   74 74  160/ 19/ 23 1009.8    4/ 4

$$




USA.gov is the U.S. government's official web portal to all federal, state and local government web resources and services.